Milton, FL

12:16 PM CDT on July 28, 2017 (GMT -0500)
Whiting Field Naval Air Station (South)

Weather History for KNDZ - June, 2013

Change the Weather History Date:

Wednesday, June 12, 2013

  Actual Average (KNSE) Record (KNSE)
Temperature  
Mean Temperature 83 °F -  
Max Temperature 95 °F 85 °F 100 °F (2007)
Min Temperature 71 °F 69 °F 66 °F (1997)
Cooling Degree Days 18    
Growing Degree Days 33 (Base 50)    
Moisture  
Dew Point 72 °F    
Average Humidity 83    
Maximum Humidity 100    
Minimum Humidity 41    
Precipitation  
Precipitation 0.00 in - - ()
Sea Level Pressure  
Sea Level Pressure 30.04 in    
Wind  
Wind Speed 1 mph (West)    
Max Wind Speed 7 mph    
Max Gust Speed -    
Visibility 6 miles    
Events Fog    
Averages and records for this station are not official NWS values.
T = Trace of Precipitation, MM = Missing Value Source: NWS Daily Summary

Daily Weather History Graph

Daily Weather History Graph

Search for Another Location

Airport or City:

Trip Planner

Search our weather history database for the weather conditions in past years. The results will help you decide how hot, cold, wet, or windy it might be!

Date:

Astronomy

Jun. 12, 2013 Rise Set
Actual Time 5:44 AM CDT 7:51 PM CDT
Civil Twilight 5:17 AM CDT 8:19 PM CDT
Nautical Twilight 4:43 AM CDT 8:52 PM CDT
Astronomical Twilight 4:07 AM CDT 9:28 PM CDT
Moon 9:12 AM CDT (6/12) 10:40 PM CDT (6/12)
Length of Visible Light 15h 02m
Length of Day
14h 06m
Waxing Crescent, 14% of the Moon is Illuminated
Jun 12
Waxing Crescent
Jun 16
First Quarter
Jun 23
Full
Jun 29
Last Quarter
Jul 8
New

Hourly Weather History & Observations

Time (CDT) Temp. Heat Index Dew Point Humidity Pressure Visibility Wind Dir Wind Speed Gust Speed Precip Events Conditions
12:56 AM 77.0 °F - 73.9 °F 90% 30.01 in 10.0 mi Calm Calm - N/A   Clear
1:56 AM 75.0 °F - 73.0 °F 94% 30.01 in 8.0 mi Calm Calm - N/A   Clear
2:12 AM 73.4 °F - 71.6 °F 94% 30.05 in 1.8 mi Calm Calm - N/A   Clear
2:23 AM 75.2 °F - 71.6 °F 89% 30.05 in 3.0 mi Calm Calm - N/A   Clear
2:35 AM 73.4 °F - 71.6 °F 94% 30.06 in 1.8 mi Calm Calm - N/A   Clear
2:43 AM 73.4 °F - 71.6 °F 94% 30.05 in 3.0 mi Calm Calm - N/A   Clear
2:56 AM 75.0 °F - 73.0 °F 94% 30.01 in 10.0 mi Calm Calm - N/A   Clear
3:21 AM 73.4 °F - 73.4 °F 100% 30.05 in 1.8 mi Calm Calm - N/A   Partly Cloudy
3:43 AM 73.4 °F - 71.6 °F 94% 30.05 in 1.0 mi Calm Calm - N/A   Mist
3:56 AM 73.0 °F - 72.0 °F 96% 30.01 in 2.5 mi Calm Calm - N/A   Mostly Cloudy
4:07 AM 73.4 °F - 71.6 °F 94% 30.06 in 1.0 mi Calm Calm - N/A   Mist
4:16 AM 71.6 °F - 71.6 °F 100% 30.06 in 2.5 mi Calm Calm - N/A   Scattered Clouds
4:23 AM 71.6 °F - 69.8 °F 94% 30.06 in 6.0 mi Calm Calm - N/A   Scattered Clouds
4:37 AM 71.6 °F - 69.8 °F 94% 30.06 in 2.0 mi Calm Calm - N/A   Partly Cloudy
4:47 AM 71.6 °F - 69.8 °F 94% 30.06 in 4.0 mi Calm Calm - N/A   Partly Cloudy
4:56 AM 72.0 °F - 70.0 °F 93% 30.01 in 2.5 mi Calm Calm - N/A   Partly Cloudy
5:03 AM 73.4 °F - 71.6 °F 94% 30.06 in 6.0 mi Calm Calm - N/A   Partly Cloudy
5:13 AM 73.4 °F - 71.6 °F 94% 30.06 in 1.8 mi Calm Calm - N/A   Partly Cloudy
5:23 AM 73.4 °F - 71.6 °F 94% 30.07 in 3.0 mi Calm Calm - N/A   Partly Cloudy
5:26 AM 73.4 °F - 71.6 °F 94% 30.07 in 1.8 mi Calm Calm - N/A   Scattered Clouds
5:35 AM 73.4 °F - 71.6 °F 94% 30.07 in 1.0 mi Calm Calm - N/A   Mist
5:56 AM 71.1 °F - 69.1 °F 93% 30.03 in 0.5 mi Calm Calm - N/A Fog Fog
6:05 AM 71.6 °F - 69.8 °F 94% 30.08 in 1.5 mi Calm Calm - N/A   Scattered Clouds
6:11 AM 71.6 °F - 69.8 °F 94% 30.08 in 2.0 mi Calm Calm - N/A   Mostly Cloudy
6:19 AM 71.6 °F - 69.8 °F 94% 30.08 in 1.8 mi Calm Calm - N/A   Mostly Cloudy
6:31 AM 71.6 °F - 69.8 °F 94% 30.08 in 3.0 mi Calm Calm - N/A   Mostly Cloudy
6:43 AM 73.4 °F - 71.6 °F 94% 30.09 in 2.0 mi Calm Calm - N/A   Overcast
6:53 AM 75.2 °F - 73.4 °F 94% 30.09 in 9.0 mi Calm Calm - N/A   Mostly Cloudy
6:56 AM 75.0 °F - 73.0 °F 94% 30.04 in 10.0 mi Calm Calm - N/A   Mostly Cloudy
7:11 AM 75.2 °F - 73.4 °F 94% 30.09 in 10.0 mi Calm Calm - N/A   Partly Cloudy
7:56 AM 79.0 °F - 75.0 °F 88% 30.05 in 10.0 mi West 4.6 mph - N/A   Clear
8:56 AM 84.0 °F 92.6 °F 75.9 °F 76% 30.05 in 10.0 mi Variable 4.6 mph - N/A   Clear
9:56 AM 87.1 °F 96.3 °F 75.0 °F 67% 30.04 in 10.0 mi NW 4.6 mph - N/A   Clear
10:56 AM 90.0 °F 97.9 °F 73.0 °F 57% 30.05 in 10.0 mi Variable 3.5 mph - N/A   Partly Cloudy
11:56 AM 89.1 °F 96.0 °F 72.0 °F 57% 30.05 in 10.0 mi WSW 3.5 mph - N/A   Mostly Cloudy
12:56 PM 91.9 °F 97.4 °F 70.0 °F 48% 30.04 in 10.0 mi Calm Calm - N/A   Partly Cloudy
1:56 PM 93.9 °F 98.6 °F 68.0 °F 43% 30.02 in 10.0 mi Calm Calm - N/A   Partly Cloudy
2:56 PM 95.0 °F 99.5 °F 68.0 °F 41% 30.01 in 10.0 mi WNW 5.8 mph - N/A   Partly Cloudy
3:56 PM 93.9 °F 99.1 °F 69.1 °F 44% 29.98 in 10.0 mi NW 6.9 mph - N/A   Partly Cloudy
4:56 PM 93.9 °F 99.1 °F 69.1 °F 44% 29.97 in 10.0 mi NNW 4.6 mph - N/A   Partly Cloudy
5:56 PM 90.0 °F 100.2 °F 75.0 °F 61% 29.96 in 10.0 mi Variable 4.6 mph - N/A   Clear
6:56 PM 87.1 °F 95.4 °F 73.9 °F 65% 29.96 in 10.0 mi SSW 4.6 mph - N/A   Partly Cloudy
7:56 PM 86.0 °F 93.8 °F 73.9 °F 67% 29.97 in 10.0 mi SSW 4.6 mph - N/A   Clear
8:56 PM 82.9 °F 88.8 °F 73.0 °F 72% 29.97 in 10.0 mi Calm Calm - N/A   Clear
9:56 PM 82.0 °F 86.7 °F 72.0 °F 71% 29.98 in 10.0 mi Calm Calm - N/A   Clear
10:56 PM 81.0 °F 85.8 °F 73.0 °F 77% 29.99 in 10.0 mi Calm Calm - N/A   Clear
11:56 PM 79.0 °F - 73.0 °F 82% 29.99 in 10.0 mi Calm Calm - N/A   Clear